Location: Stamford Observatory
(41.1241°N, 73.5498°W)
Time: 02:15:06
(UTC-04:00)

IRS-P3 - Visible Passes

Search period start: 28 July 2014 00:00
Search period end: 07 August 2014 00:00
Orbit: 815 x 820 km, 98.6° (Epoch: 27 July)

Date Brightness Start Highest point End Pass type
(mag) Time Alt. Az. Time Alt. Az. Time Alt. Az.
28 Jul 5.6 01:46:05 10° NE 01:50:29 26° E 01:50:45 25° E visible
28 Jul 4.8 03:25:39 10° N 03:30:37 40° WNW 03:32:03 34° WSW visible
29 Jul 6.2 01:25:35 10° NE 01:28:51 16° E 01:29:00 16° E visible
29 Jul 4.2 03:04:02 10° N 03:09:18 63° WNW 03:10:18 52° WSW visible
30 Jul 4.0 02:42:34 10° NNE 02:47:56 85° ESE 02:48:33 70° S visible
30 Jul 6.1 04:24:42 10° NNW 04:27:13 14° WNW 04:29:43 10° W visible
31 Jul 4.4 02:21:15 10° NNE 02:26:29 54° E 02:26:48 53° ESE visible
31 Jul 5.7 04:02:16 10° NNW 04:06:05 20° WNW 04:08:06 17° W visible
01 Aug 5.2 02:00:07 10° NNE 02:04:58 34° E 02:05:03 34° E visible
01 Aug 5.2 03:40:17 10° N 03:44:54 30° WNW 03:46:21 26° W visible
02 Aug 5.8 01:39:17 10° NE 01:43:18 22° E 01:43:18 22° E visible
02 Aug 4.5 03:18:33 10° N 03:23:38 46° WNW 03:24:36 42° W visible
03 Aug 6.4 01:19:02 10° ENE 01:21:33 14° E 01:21:33 14° E visible
03 Aug 4.0 02:56:58 10° N 03:02:18 72° WNW 03:02:51 66° WSW visible
04 Aug 4.1 02:35:32 10° NNE 02:40:53 74° ESE 02:41:06 73° SE visible
04 Aug 6.0 04:17:16 10° NNW 04:20:17 16° WNW 04:22:24 13° W visible
05 Aug 4.7 02:14:17 10° NNE 02:19:20 47° E 02:19:20 47° E visible
05 Aug 5.5 03:55:01 10° NNW 03:59:08 23° WNW 04:00:38 21° W visible
06 Aug 5.5 01:53:14 10° NE 01:57:35 30° E 01:57:35 30° E visible
06 Aug 4.9 03:33:08 10° N 03:37:55 35° WNW 03:38:53 32° W visible
